This is the latest recevied weather packets stored in our database for station/object LZ1PDB-12. If no packets are shown the sender has not sent any weather packets the latest 1 day(s).
| Time | Temp. | Humidity | Pressure | Rain* | Wind** | Luminosity | Snow |
|---|---|---|---|---|---|---|---|
| 1777825014 | 11.67° C | 42% | 1023.8 hPa | - | - | - | - |
| 1777824114 | 11.67° C | 44% | 1023.7 hPa | - | - | - | - |
| 1777823214 | 11.67° C | 45% | 1023.8 hPa | - | - | - | - |
| 1777822313 | 11.67° C | 43% | 1023.9 hPa | - | - | - | - |
| 1777821413 | 11.67° C | 42% | 1023.9 hPa | - | - | - | - |
| 1777820513 | 11.67° C | 42% | 1024.1 hPa | - | - | - | - |
| 1777819613 | 12.22° C | 43% | 1024.1 hPa | - | - | - | - |
| 1777818712 | 11.67° C | 44% | 1024.3 hPa | - | - | - | - |
| 1777817812 | 11.67° C | 42% | 1024.4 hPa | - | - | - | - |
| 1777816912 | 11.67° C | 42% | 1024.5 hPa | - | - | - | - |
| 1777816012 | 11.67° C | 42% | 1024.6 hPa | - | - | - | - |
| 1777815112 | 11.67° C | 42% | 1024.7 hPa | - | - | - | - |
| 1777814211 | 11.67° C | 41% | 1024.7 hPa | - | - | - | - |
| 1777813311 | 11.67° C | 41% | 1024.7 hPa | - | - | - | - |
| 1777812411 | 11.11° C | 42% | 1025 hPa | - | - | - | - |
| 1777811511 | 11.11° C | 43% | 1025 hPa | - | - | - | - |
| 1777810611 | 11.11° C | 43% | 1025.1 hPa | - | - | - | - |
| 1777809711 | 11.11° C | 43% | 1025.3 hPa | - | - | - | - |
| 1777808811 | 10.56° C | 44% | 1025.3 hPa | - | - | - | - |
| 1777807910 | 10.56° C | 44% | 1025.2 hPa | - | - | - | - |
| 1777807010 | 10.56° C | 44% | 1025.3 hPa | - | - | - | - |
| 1777806110 | 10° C | 44% | 1025.4 hPa | - | - | - | - |
| 1777805210 | 11.11° C | 43% | 1025.3 hPa | - | - | - | - |
| 1777804310 | 10° C | 45% | 1025.3 hPa | - | - | - | - |
| 1777803409 | 10° C | 44% | 1025.3 hPa | - | - | - | - |
* Rain since midnight (hover to see other rain measurements)
** Current wind speed in m/s (hover to see current wind gust speed)